Location: Balmoral
(33.0667°S, 151.5833°E)
Time: 01:33:19
(UTC+00:00)

NOAA 6 - Pass Details

Date: 18 September 2020
Orbit: 773 x 786 km, 98.7° (Epoch: 21 October)

Event Time Altitude Azimuth Distance (km) Brightness Sun altitude
Rises 19:10:49 0° 7° (N) 3,262 7.3 -8.5°
Reaches altitude 10° 19:13:08 10° 4° (N) 2,341 6.5 -8.0°
Maximum altitude 19:18:16 67° 282° (WNW) 857 4.1 -6.9°
Drops below altitude 10° 19:23:28 10° 199° (SSW) 2,363 6.4 -5.8°
Sets 19:25:50 0° 196° (SSW) 3,297 7.1 -5.3°
